Victoria, TX

11:30 AM CDT on October 17, 2019 (GMT -0500)
Victoria Regional

Weather History for KVCT - August, 2019

Change the Weather History Date:

Sunday, August 4, 2019

  Actual Average Record
Temperature  
Mean Temperature 86 °F 85 °F  
Max Temperature 97 °F 95 °F 104 °F (1949)
Min Temperature 75 °F 74 °F 68 °F (1949)
Degree Days  
Heating Degree Days 0 0  
Month to date heating degree days 0 0  
Since 1 June heating degree days 0 0  
Since 1 July heating degree days 0 0  
Cooling Degree Days 21 20  
Month to date cooling degree days 86 80  
Year to date cooling degree days 2039 1833  
Since 1 June cooling degree days 1271 1174  
Growing Degree Days 36 (Base 50)    
Moisture  
Dew Point 73 °F    
Average Humidity 69    
Maximum Humidity 94    
Minimum Humidity 43    
Precipitation  
Precipitation T in 0.09 in 1.36 in (1991)
Month to date precipitation T 0.34  
Year to date precipitation 14.64 24.36  
Snow  
Snow 0.00 in 0.00 in 0.00 in (2002)
Month to date snowfall 0.0 0.0  
Since 1 June snowfall 0.0 0.0  
Since 1 July snowfall 0.0 0.0  
Snow Depth 0.00 in    
Sea Level Pressure  
Sea Level Pressure 29.93 in    
Wind  
Wind Speed 7 mph (SE)    
Max Wind Speed 18 mph    
Max Gust Speed 22 mph    
Visibility 10 miles    
Events Rain    
T = Trace of Precipitation, MM = Missing Value Source: NWS Daily Summary

Daily Weather History Graph

Daily Weather History Graph

Search for Another Location

Airport or City:

Astronomy

Aug. 04, 2019 Rise Set
Actual Time 6:50 AM CDT 8:16 PM CDT
Civil Twilight 6:24 AM CDT 8:42 PM CDT
Nautical Twilight 5:54 AM CDT 9:12 PM CDT
Astronomical Twilight 5:22 AM CDT 9:44 PM CDT
Moon 10:40 AM CDT (8/4) 11:17 PM CDT (8/4)
Length of Visible Light 14h 17m
Length of Day
13h 26m
Waxing Crescent, 18% of the Moon is Illuminated
Aug 4
Waxing Crescent
Aug 7
First Quarter
Aug 15
Full
Aug 23
Last Quarter
Aug 30
New

Hourly Weather History & Observations

Time (CDT) Temp. Heat Index Dew Point Humidity Pressure Visibility Wind Dir Wind Speed Gust Speed Precip Events Conditions
12:51 AM 80.1 °F 84.5 °F 73.9 °F 81% 29.93 in 10.0 mi SSE 5.8 mph - N/A   Mostly Cloudy
1:51 AM 78.1 °F - 73.0 °F 84% 29.92 in 10.0 mi SE 4.6 mph - N/A   Scattered Clouds
2:51 AM 77.0 °F - 73.0 °F 88% 29.92 in 10.0 mi SSE 3.5 mph - N/A   Scattered Clouds
3:51 AM 77.0 °F - 73.0 °F 88% 29.91 in 10.0 mi ESE 5.8 mph - N/A   Mostly Cloudy
4:51 AM 75.0 °F - 72.0 °F 90% 29.91 in 10.0 mi Calm Calm - N/A   Partly Cloudy
5:34 AM 75.9 °F - 73.0 °F 91% 29.92 in 10.0 mi Calm Calm - N/A   Mostly Cloudy
5:44 AM 75.9 °F - 72.0 °F 87% 29.93 in 10.0 mi Calm Calm - N/A   Mostly Cloudy
5:51 AM 75.9 °F - 73.0 °F 91% 29.93 in 10.0 mi Calm Calm - N/A   Overcast
6:00 AM 75.9 °F - 73.0 °F 91% 29.93 in 10.0 mi NE 3.5 mph - N/A   Mostly Cloudy
6:12 AM 75.9 °F - 73.0 °F 91% 29.94 in 10.0 mi ENE 5.8 mph - N/A   Mostly Cloudy
6:24 AM 75.9 °F - 73.0 °F 91% 29.94 in 10.0 mi NE 4.6 mph - N/A   Mostly Cloudy
6:51 AM 77.0 °F - 73.0 °F 88% 29.94 in 10.0 mi East 3.5 mph - N/A   Mostly Cloudy
7:51 AM 77.0 °F - 73.9 °F 90% 29.95 in 10.0 mi Calm Calm - N/A   Mostly Cloudy
8:51 AM 80.1 °F 85.1 °F 75.0 °F 85% 29.97 in 10.0 mi Calm Calm - N/A   Scattered Clouds
9:51 AM 87.1 °F 95.4 °F 73.9 °F 65% 29.97 in 10.0 mi Variable 5.8 mph - N/A   Partly Cloudy
10:10 AM 87.1 °F 94.5 °F 73.0 °F 63% 29.97 in 10.0 mi SW 6.9 mph - N/A   Mostly Cloudy
10:19 AM 88.0 °F 95.6 °F 73.0 °F 61% 29.97 in 10.0 mi SSW 4.6 mph - N/A   Scattered Clouds
10:51 AM 89.1 °F 97.0 °F 73.0 °F 59% 29.97 in 10.0 mi Variable 5.8 mph - N/A   Clear
10:57 AM 89.1 °F 96.0 °F 72.0 °F 57% 29.97 in 10.0 mi Variable 3.5 mph - N/A   Scattered Clouds
11:51 AM 93.0 °F 97.9 °F 69.1 °F 45% 29.95 in 10.0 mi SSE 5.8 mph - N/A   Scattered Clouds
12:51 PM 95.0 °F 100.7 °F 69.1 °F 43% 29.94 in 10.0 mi SE 8.1 mph - N/A   Partly Cloudy
1:51 PM 95.0 °F 100.7 °F 69.1 °F 43% 29.92 in 10.0 mi Variable 4.6 mph - N/A   Scattered Clouds
2:51 PM 95.0 °F 100.7 °F 69.1 °F 43% 29.91 in 10.0 mi SSW 5.8 mph - N/A   Scattered Clouds
3:51 PM 93.9 °F 102.1 °F 72.0 °F 49% 29.89 in 10.0 mi South 12.7 mph - N/A   Overcast
4:51 PM 93.9 °F 100.8 °F 71.1 °F 47% 29.88 in 10.0 mi SSE 12.7 mph - N/A   Partly Cloudy
5:51 PM 93.0 °F 104.6 °F 75.0 °F 56% 29.88 in 8.0 mi SSE 15.0 mph - 0.00 in Rain Light Rain
6:51 PM 91.9 °F 100.7 °F 73.0 °F 54% 29.87 in 10.0 mi ESE 15.0 mph 20.7 mph 0.00 in   Clear
7:51 PM 88.0 °F 94.7 °F 72.0 °F 59% 29.89 in 10.0 mi South 11.5 mph - N/A   Clear
8:51 PM 84.9 °F 91.4 °F 73.0 °F 67% 29.89 in 10.0 mi SSE 10.4 mph - N/A   Clear
9:51 PM 82.9 °F 88.8 °F 73.0 °F 72% 29.91 in 10.0 mi SSE 6.9 mph - N/A   Clear
10:51 PM 82.0 °F 87.9 °F 73.9 °F 76% 29.92 in 10.0 mi SE 8.1 mph - N/A   Partly Cloudy
11:51 PM 80.1 °F 84.5 °F 73.9 °F 81% 29.93 in 10.0 mi SSE 6.9 mph - N/A   Clear